GW4198 Weather Reports


time (UTC)temp
F
wind
direction
speed
knots
gust
knots
rain 1hr
in
rain 24hr
in
rain mn
in
humidity
%
barometer
mb
20260505112702 60 111 0.0 0.0 0.00 0.16 0.16 99 1006.8
20260505112200 60 108 0.0 0.0 0.00 0.16 0.16 99 1006.7
20260505111659 60 95 0.0 0.0 0.00 0.16 0.16 99 1006.5
20260505111155 60 81 0.0 0.0 0.00 0.16 0.16 99 1006.6
20260505110651 60 95 0.0 0.0 0.07 0.16 0.16 99 1006.7
20260505110149 60 133 0.0 0.0 0.12 0.16 0.16 99 1006.9
20260505102125 60 125 0.0 0.0 0.00 0.11 0.11 98 1005.7
20260505101623 60 88 0.0 0.0 0.07 0.11 0.11 98 1005.8
20260505101119 60 75 0.0 0.0 0.07 0.11 0.11 98 1006.0
20260505100616 60 98 0.0 0.0 0.00 0.10 0.10 98 1005.5
20260505100113 60 104 0.0 0.0 0.00 0.10 0.10 98 1006.6
20260505095609 60 51 0.0 0.0 0.05 0.10 0.10 98 1005.8
20260505095105 60 139 1.7 1.7 0.12 0.10 0.10 97 1005.2
20260505094602 60 87 0.0 0.0 0.12 0.09 0.09 97 1005.5
20260505094058 60 87 0.0 0.0 0.12 0.08 0.08 97 1006.7
20260505093554 60 87 0.0 0.0 0.07 0.07 0.07 96 1007.1
20260505093052 60 93 0.0 0.0 0.05 0.06 0.06 96 1006.9
20260505092549 60 124 0.0 0.0 0.12 0.06 0.06 96 1006.7
20260505092048 60 66 0.0 0.0 0.12 0.05 0.05 95 1006.1
20260505091544 61 142 0.0 0.0 0.12 0.04 0.04 94 1005.7
20260505091043 61 102 0.0 0.0 0.07 0.03 0.03 93 1006.2
20260505090540 61 83 0.0 0.0 0.05 0.02 0.02 91 1005.7
20260505090038 62 84 0.0 0.0 0.12 0.02 0.02 90 1005.5
20260505085535 62 84 0.0 0.0 0.07 0.01 0.01 89 1005.7
20260505085033 63 84 0.0 0.0 0.07 0.01 0.01 85 1005.7
20260505084531 64 83 0.0 0.0 0.00 0.00 0.00 82 1005.6
20260505084029 64 75 0.0 0.0 0.00 0.00 0.00 77 1005.2
20260505083526 64 75 0.0 0.0 0.00 0.00 0.00 75 1005.7
20260505083022 64 151 0.0 0.0 0.00 0.00 0.00 74 1005.5
20260505082518 64 103 0.0 0.0 0.00 0.00 0.00 75 1005.5
20260505082015 65 41 0.0 0.0 0.00 0.00 0.00 73 1004.9
20260505081512 65 99 0.0 0.9 0.00 0.00 0.00 72 1005.0
20260505081009 65 348 0.9 0.9 0.00 0.00 0.00 70 1004.8
20260505080505 65 168 0.0 0.0 0.00 0.00 0.00 73 1004.9
20260505080001 66 94 0.0 0.0 0.00 0.00 0.00 72 1004.7
20260505075457 66 93 0.0 0.0 0.00 0.00 0.00 71 1004.9
20260505074954 66 80 0.0 0.0 0.00 0.00 0.00 70 1004.8
20260505074452 66 95 0.0 0.0 0.00 0.00 0.00 70 1004.9
20260505073949 66 98 0.0 0.0 0.00 0.00 0.00 71 1005.1
20260505073446 66 94 0.0 0.0 0.00 0.00 0.00 71 1005.0
20260505072944 66 56 0.0 0.0 0.00 0.00 0.00 70 1005.0
20260505072440 66 81 0.0 0.0 0.00 0.00 0.00 71 1005.1
20260505071936 66 109 0.0 0.9 0.00 0.00 0.00 71 1005.3
20260505071432 66 105 0.0 0.0 0.00 0.00 0.00 70 1005.4
20260505070930 66 74 0.0 0.9 0.00 0.00 0.00 71 1005.5
20260505070427 66 97 0.0 0.9 0.00 0.00 0.00 71 1005.7
20260505065922 66 59 0.0 0.0 0.00 0.00 0.00 71 1005.8
20260505065419 66 104 0.0 0.9 0.00 0.00 0.00 70 1005.8
20260505064916 66 95 0.0 0.0 0.00 0.00 0.00 71 1005.8
20260505064413 65 88 0.0 0.0 0.00 0.00 0.00 71 1006.1
20260505063911 65 71 0.0 0.0 0.00 0.00 0.00 72 1006.0
20260505063407 65 95 0.0 0.0 0.00 0.00 0.00 72 1005.8
20260505062904 65 135 0.9 1.7 0.00 0.00 0.00 72 1006.2
20260505062401 65 114 0.9 0.9 0.00 0.00 0.00 72 1006.1
20260505061857 65 75 0.0 0.9 0.00 0.00 0.00 72 1006.1
20260505061356 65 91 0.0 0.0 0.00 0.00 0.00 73 1006.2
20260505060853 65 108 0.9 0.9 0.00 0.00 0.00 73 1006.4
20260505060350 65 103 0.0 0.0 0.00 0.00 0.00 74 1006.2
20260505055846 65 89 0.0 0.0 0.00 0.00 0.00 75 1006.3
20260505055342 64 110 0.9 0.9 0.00 0.00 0.00 73 1006.4
20260505054839 64 119 0.0 0.0 0.00 0.00 0.00 75 1006.4
20260505054337 64 95 0.0 0.0 0.00 0.00 0.00 77 1006.6
20260505053835 64 101 0.0 0.0 0.00 0.00 0.00 76 1006.6
20260505053331 63 104 0.0 0.0 0.00 0.00 0.00 77 1006.7
20260505052828 63 95 0.0 0.0 0.00 0.00 0.00 78 1006.8
20260505052325 63 100 0.0 0.0 0.00 0.00 0.00 77 1006.8
20260505051822 64 92 0.0 0.0 0.00 0.00 0.00 78 1007.0
20260505051320 64 92 0.0 0.0 0.00 0.00 0.00 77 1007.1
20260505050818 64 85 0.0 0.0 0.00 0.00 0.00 76 1007.0
20260505050316 64 92 0.0 0.0 0.00 0.00 0.00 77 1007.2
20260505041746 64 95 0.0 0.0 0.00 0.00 0.00 77 1007.4
20260505041243 64 99 0.0 0.0 0.00 0.00 0.00 77 1007.3
20260505040740 64 96 0.0 0.0 0.00 0.00 0.00 77 1007.3
20260505040238 64 96 0.0 0.0 0.00 0.00 0.00 76 1007.2
20260505035734 64 97 0.0 0.0 0.00 0.00 0.00 75 1007.8
20260505035230 65 92 0.0 0.0 0.00 0.00 0.00 75 1007.5
20260505034727 65 92 0.0 0.0 0.00 0.00 0.00 74 1007.5
20260505034224 65 93 0.0 0.0 0.00 0.00 0.00 74 1007.7
20260505033721 65 93 0.0 0.0 0.00 0.00 0.00 73 1007.7
20260505033219 66 88 0.0 0.0 0.00 0.00 0.00 73 1008.0
20260505032716 66 87 0.0 0.0 0.00 0.00 0.00 71 1007.7
20260505032212 66 97 0.0 0.0 0.00 0.00 0.00 73 1008.0
20260505031710 65 88 0.0 0.0 0.00 0.00 0.00 72 1007.8
20260505031206 65 89 0.0 0.0 0.00 0.00 0.00 73 1007.8
20260505030703 66 94 0.0 0.0 0.00 0.00 0.00 72 1007.5
20260505030159 66 95 0.0 0.0 0.00 0.00 0.00 71 1007.6
20260505025655 66 99 0.0 0.0 0.00 0.00 0.00 70 1007.5
20260505025153 67 93 0.0 0.0 0.00 0.00 0.00 70 1007.6
20260505024650 67 97 0.0 0.0 0.00 0.00 0.00 68 1007.6
20260505024147 68 88 0.0 0.0 0.00 0.00 0.00 69 1007.2
20260505023645 68 105 0.0 0.0 0.00 0.00 0.00 67 1007.3
20260505023142 68 107 0.0 0.9 0.00 0.00 0.00 66 1007.1
20260505022640 68 97 0.0 0.0 0.00 0.00 0.00 67 1007.1
20260505022137 67 108 0.0 0.9 0.00 0.00 0.00 67 1007.1
20260505021633 68 83 0.0 0.0 0.00 0.00 0.00 67 1007.0
20260505021130 68 93 0.0 0.0 0.00 0.00 0.00 66 1007.1
20260505020626 69 101 0.0 0.0 0.00 0.00 0.00 64 1006.8
20260505020122 69 115 0.0 0.0 0.00 0.00 0.00 64 1007.0
20260505015619 69 116 0.0 0.9 0.00 0.00 0.00 63 1006.8
20260505015116 69 141 1.7 2.6 0.00 0.00 0.00 63 1006.7
20260505014613 69 93 0.9 0.9 0.00 0.00 0.00 63 1006.6
20260505014110 69 60 0.0 0.0 0.00 0.00 0.00 63 1006.6
20260505013607 69 93 0.0 0.0 0.00 0.00 0.00 64 1006.6
20260505013104 69 60 0.9 1.7 0.00 0.00 0.00 64 1006.5
20260505012602 70 104 0.0 0.0 0.00 0.00 0.00 64 1006.4
20260505012059 70 103 0.0 0.0 0.00 0.00 0.00 61 1006.3
20260505011554 71 68 0.0 0.0 0.00 0.00 0.00 60 1006.5
20260505011052 71 102 0.0 0.0 0.00 0.00 0.00 61 1006.4
20260505010547 71 71 0.9 0.9 0.00 0.00 0.00 60 1006.3
20260505010044 71 76 0.0 0.0 0.00 0.00 0.00 60 1006.5
20260505005540 71 82 0.9 1.7 0.00 0.00 0.00 60 1006.3
20260505005038 71 269 0.0 0.9 0.00 0.00 0.00 60 1006.0
20260505004535 72 60 0.0 0.9 0.00 0.00 0.00 60 1005.8
20260505004031 72 132 0.0 0.9 0.00 0.00 0.00 59 1005.7
20260505003529 73 147 0.9 0.9 0.00 0.00 0.00 57 1005.6
20260505003026 73 98 0.9 0.9 0.00 0.00 0.00 58 1005.7
20260505002520 73 46 0.0 0.0 0.00 0.00 0.00 58 1005.8
20260505002020 73 112 0.9 0.9 0.00 0.00 0.00 56 1005.6
20260505001517 74 126 0.0 0.9 0.00 0.00 0.00 56 1005.8
20260505001014 74 122 0.9 0.9 0.00 0.00 0.00 56 1005.7
20260505000511 74 73 0.9 0.9 0.00 0.00 0.00 55 1005.8
20260505000009 74 124 3.5 3.5 0.00 0.00 0.00 54 1005.8
20260504235505 75 106 2.6 3.5 0.00 0.00 0.00 54 1005.8
20260504235001 75 148 1.7 1.7 0.00 0.00 0.00 54 1006.0
20260504234459 75 253 1.7 1.7 0.00 0.00 0.00 53 1006.0
20260504233956 75 105 0.9 0.9 0.00 0.00 0.00 53 1006.1
20260504233451 76 242 7.0 12.2 0.00 0.00 0.00 52 1006.2
20260504232948 76 100 1.7 1.7 0.00 0.00 0.00 53 1006.2
20260504232445 76 108 0.0 0.9 0.00 0.00 0.00 53 1006.2
20260504231943 76 112 0.0 0.0 0.00 0.00 0.00 53 1006.4
20260504231439 76 184 0.0 0.9 0.00 0.00 0.00 54 1006.3
20260504230935 76 84 3.5 6.1 0.00 0.00 0.00 52 1006.2
20260504230432 77 128 0.0 0.9 0.00 0.00 0.00 53 1006.3
20260504225931 77 84 1.7 1.7 0.00 0.00 0.00 51 1006.4
20260504225428 77 35 0.9 0.9 0.00 0.00 0.00 53 1006.2
20260504224925 77 227 0.0 0.9 0.00 0.00 0.00 51 1006.3
20260504224421 77 35 0.0 0.9 0.00 0.00 0.00 50 1006.4
20260504223919 78 306 2.6 5.2 0.00 0.00 0.00 49 1006.4
20260504223414 78 182 3.5 3.5 0.00 0.00 0.00 48 1006.5
20260504222910 79 266 1.7 1.7 0.00 0.00 0.00 49 1006.5
20260504222407 80 100 0.0 0.9 0.00 0.00 0.00 47 1006.4
20260504221906 80 78 1.7 3.5 0.00 0.00 0.00 48 1006.5
20260504221402 80 293 2.6 2.6 0.00 0.00 0.00 47 1006.4
20260504220859 80 147 1.7 1.7 0.00 0.00 0.00 47 1006.4
20260504220356 81 99 0.9 1.7 0.00 0.00 0.00 47 1006.5
20260504215853 80 165 0.9 0.9 0.00 0.00 0.00 47 1006.5
20260504215349 81 113 3.5 5.2 0.00 0.00 0.00 46 1006.6
20260504214846 81 214 1.7 2.6 0.00 0.00 0.00 47 1006.4
20260504214343 81 126 0.0 0.9 0.00 0.00 0.00 47 1006.5
20260504213839 81 144 2.6 2.6 0.00 0.00 0.00 47 1006.5
20260504213335 81 247 3.5 5.2 0.00 0.00 0.00 46 1006.7
20260504212833 80 98 2.6 5.2 0.00 0.00 0.00 46 1006.8
20260504212329 81 325 0.9 0.9 0.00 0.00 0.00 45 1006.7
20260504211827 82 259 4.3 6.1 0.00 0.00 0.00 44 1006.6
20260504211327 82 126 0.0 0.0 0.00 0.00 0.00 47 1006.6
20260504210825 81 119 1.7 1.7 0.00 0.00 0.00 45 1006.6
20260504210322 81 182 1.7 2.6 0.00 0.00 0.00 46 1006.9
20260504205819 82 294 0.0 0.9 0.00 0.00 0.00 44 1007.0
20260504205317 82 339 0.9 1.7 0.00 0.00 0.00 45 1007.0
20260504204815 82 245 1.7 1.7 0.00 0.00 0.00 44 1007.1
20260504204313 81 257 1.7 1.7 0.00 0.00 0.00 44 1006.9
20260504203812 81 82 4.3 6.1 0.00 0.00 0.00 45 1007.1
20260504203309 81 141 2.6 2.6 0.00 0.00 0.00 43 1007.4
20260504202804 82 69 3.5 3.5 0.00 0.00 0.00 43 1007.2
20260504202301 82 46 0.9 1.7 0.00 0.00 0.00 45 1007.3
20260504201758 80 84 0.9 1.7 0.00 0.00 0.00 43 1007.2
20260504201255 81 116 1.7 2.6 0.00 0.00 0.00 45 1007.4
20260504200753 81 80 1.7 1.7 0.00 0.00 0.00 47 1007.4
20260504200249 81 237 4.3 6.1 0.00 0.00 0.00 45 1007.4
20260504195746 81 102 1.7 2.6 0.00 0.00 0.00 45 1007.3
20260504195241 81 312 1.7 2.6 0.00 0.00 0.00 48 1007.5
20260504194739 81 101 1.7 1.7 0.00 0.00 0.00 46 1007.6
20260504194235 81 61 1.7 3.5 0.00 0.00 0.00 47 1007.7
20260504193731 82 282 2.6 5.2 0.00 0.00 0.00 44 1007.6
20260504193229 81 27 2.6 2.6 0.00 0.00 0.00 47 1007.7
20260504192727 80 341 1.7 2.6 0.00 0.00 0.00 46 1007.8
20260504192225 80 22 1.7 2.6 0.00 0.00 0.00 48 1008.0
20260504191723 80 355 2.6 3.5 0.00 0.00 0.00 47 1007.9
20260504191220 80 108 4.3 6.1 0.00 0.00 0.00 47 1007.9
20260504190715 80 81 0.9 0.9 0.00 0.00 0.00 48 1008.0
20260504190212 79 94 1.7 2.6 0.00 0.00 0.00 47 1008.0
20260504185708 80 49 1.7 2.6 0.00 0.00 0.00 48 1007.9
20260504185205 80 114 1.7 2.6 0.00 0.00 0.00 46 1008.0
20260504184701 80 221 1.7 2.6 0.00 0.00 0.00 47 1008.1
20260504184156 79 203 2.6 2.6 0.00 0.00 0.00 46 1008.1
20260504183653 80 150 0.9 0.9 0.00 0.00 0.00 47 1008.2
20260504183150 80 91 0.0 0.9 0.00 0.00 0.00 47 1008.2
20260504182648 80 17 1.7 2.6 0.00 0.00 0.00 46 1008.3
20260504182145 79 262 0.9 0.9 0.00 0.00 0.00 46 1008.3
20260504181643 79 295 4.3 5.2 0.00 0.00 0.00 46 1008.3
20260504181140 80 152 3.5 3.5 0.00 0.00 0.00 46 1008.5
20260504180639 79 94 0.9 0.9 0.00 0.00 0.00 46 1008.3
20260504180137 79 165 5.2 7.0 0.00 0.00 0.00 46 1008.3
20260504175634 79 160 0.9 0.9 0.00 0.00 0.00 50 1008.5
20260504175131 79 101 1.7 3.5 0.00 0.00 0.00 48 1008.6
20260504174629 78 10 1.7 2.6 0.00 0.00 0.00 48 1008.8
20260504174125 78 102 1.7 2.6 0.00 0.00 0.00 47 1008.8
20260504173623 78 245 3.5 3.5 0.00 0.00 0.00 45 1008.8
20260504173120 78 126 3.5 3.5 0.00 0.00 0.00 46 1009.1
20260504172616 77 254 2.6 2.6 0.00 0.00 0.00 46 1009.0
20260504172113 78 117 1.7 3.5 0.00 0.00 0.00 45 1009.1
20260504171609 78 66 1.7 1.7 0.00 0.00 0.00 46 1009.1
20260504171107 78 155 3.5 5.2 0.00 0.00 0.00 45 1009.2
20260504170602 77 91 1.7 2.6 0.00 0.00 0.00 46 1009.2
20260504150946 72 74 0.9 1.7 0.00 0.00 0.00 52 1010.4
20260504150443 72 205 1.7 1.7 0.00 0.00 0.00 51 1010.2
20260504140909 68 165 0.9 1.7 0.00 0.00 0.00 58 1010.9
20260504140405 68 60 1.7 3.5 0.00 0.00 0.00 57 1011.0
20260504130330 64 83 1.7 1.7 0.00 0.00 0.00 61 1010.8
20260504120254 61 68 0.0 0.0 0.00 0.00 0.00 65 1010.8